Location: Camp Crooked Creek
(37.9149°N, 85.6607°W)
Time: 13:53:12
(UTC-04:00)

Amateur Radio Satellites - All Passes

Search period start: 30 September 2014 13:23
Search period end: 01 October 2014 13:23
Location: Camp Crooked Creek, 37.9149°N, 85.6607°W

Satellite Date Start Highest point End Downlink Frequencies (MHz)
Time Altitude Azimuth
JAS-1B 30 Sep 13:56:01 14:02:40 34° 68° (ENE) 14:08:25 435.800 - 435.900 CW/SSB
Oscar 19 30 Sep 14:05:53 14:10:54 51° 72° (ENE) 14:15:55 437.125 CW, 437.150 USB
ITAMSAT 1 30 Sep 14:16:45 14:21:03 27° 67° (ENE) 14:25:22 435.822 SSB
Uribyol 2 30 Sep 14:17:40 14:22:06 30° 68° (ENE) 14:26:34 436.500 FM
Oscar 16 30 Sep 14:46:42 14:51:50 62° 259° (WSW) 14:57:00 437.025 USB, Beacon 2401.1428
AO-27 30 Sep 14:54:02 14:59:08 64° 73° (ENE) 15:04:16 436.795 MHz FM
AO-7 30 Sep 14:59:58 15:03:48 14° 49° (NE) 15:07:38 29.400 - 29.500 MHz
AO-Echo 30 Sep 15:02:39 15:07:20 89° 77° (ENE) 15:12:04 ?
RS-15 30 Sep 15:04:31 15:12:12 22° 259° (W) 15:20:08 29.354 - 29.394 USB, Beacon 29.352 USB
Gurwin Techsat 1B 30 Sep 15:14:43 15:19:46 47° 71° (ENE) 15:24:51 435.225 FM
Saudisat 1A 30 Sep 15:22:41 15:27:04 74° 302° (WNW) 15:31:29 436.775 MHz
TMSAT-1 30 Sep 15:43:39 15:48:52 65° 74° (ENE) 15:54:07 436.925 FM
JAS-1B 30 Sep 15:45:46 15:53:10 42° 260° (W) 15:59:28 435.800 - 435.900 CW/SSB
Oscar 19 30 Sep 15:47:08 15:50:30 17° 267° (W) 15:53:53 437.125 CW, 437.150 USB
ITAMSAT 1 30 Sep 15:55:45 16:00:23 33° 263° (W) 16:05:04 435.822 SSB
Uribyol 2 30 Sep 15:56:57 16:01:28 31° 263° (W) 16:06:03 436.500 FM
MaSat-1 30 Sep 15:57:43 16:00:42 29° 59° (ENE) 16:03:20 437.345 MHz
Uosat F 30 Sep 16:24:08 16:28:10 25° 67° (ENE) 16:32:14 435.120 FM
AO-27 30 Sep 16:36:30 16:39:03 14° 269° (W) 16:41:37 436.795 MHz FM
AO-7 30 Sep 16:46:52 16:55:04 68° 69° (ENE) 17:03:16 29.400 - 29.500 MHz
Gurwin Techsat 1B 30 Sep 16:56:11 16:59:57 20° 267° (W) 17:03:44 435.225 FM
JAS-2 30 Sep 17:19:17 17:21:56 14° 60° (ENE) 17:24:39 435.800 - 435.900 CW/SSB, 435.910 FM
TMSAT-1 30 Sep 17:26:33 17:29:13 14° 269° (W) 17:31:53 436.925 FM
Hamsat 30 Sep 17:40:41 17:43:00 14° 66° (ENE) 17:45:18 145.90 MHz
KITSAT 1 30 Sep 17:44:09 17:51:58 57° 112° (ESE) 17:59:49 435.175 FM
Uosat F 30 Sep 18:02:16 18:06:46 34° 262° (W) 18:11:19 435.120 FM
OPAL 30 Sep 18:09:29 18:14:10 36° 100° (E) 18:18:45 ?
Sapphire 30 Sep 18:20:13 18:22:36 13° 43° (NE) 18:24:58 437.095 MHz 1200 baud AX-25 AFSK
Oscar 10/S400 30 Sep 18:28:27 18:47:00 61° 164° (SSE) 19:50:43 145.825 - 145.975 CW/USB, Beacon 145.810 USB
AO-7 30 Sep 18:42:01 18:48:22 24° 265° (W) 18:54:46 29.400 - 29.500 MHz
PCSat 30 Sep 18:44:42 18:48:46 21° 49° (NE) 18:52:48 145.825 MHz
JAS-2 30 Sep 19:01:18 19:06:24 64° 259° (W) 19:11:43 435.800 - 435.900 CW/SSB, 435.910 FM
STRAND 1 30 Sep 19:12:34 19:14:04 11° 90° (E) 19:15:34 ?
Hamsat 30 Sep 19:14:21 19:18:32 47° 261° (W) 19:22:43 145.90 MHz
KITSAT 1 30 Sep 19:40:31 19:47:41 34° 312° (NW) 19:54:54 435.175 FM
OPAL 30 Sep 19:48:43 19:52:50 25° 296° (WNW) 19:56:53 ?
HO-68 30 Sep 19:53:55 19:56:15 12° 52° (NE) 19:58:34 435.675 MHz FM
Sapphire 30 Sep 20:01:27 20:06:55 79° 62° (ENE) 20:12:19 437.095 MHz 1200 baud AX-25 AFSK
SO-50 30 Sep 20:11:29 20:15:54 66° 118° (ESE) 20:20:27 436.795 FM
SO-67 30 Sep 20:13:28 20:16:53 70° 259° (W) 20:20:20 435.3500 MHz FM
PCSat 30 Sep 20:27:14 20:32:33 57° 247° (WSW) 20:37:49 145.825 MHz
UOSAT-12 30 Sep 20:45:16 20:46:43 11° 106° (ESE) 20:48:10 437.025 FM, 437.400 FM
STRAND 1 30 Sep 20:48:37 20:53:46 75° 285° (WNW) 20:58:54 ?
Oscar 11 30 Sep 21:32:12 21:34:32 14° 65° (ENE) 21:36:51 145.825 FM, Beacon 2401.500 USB
HO-68 30 Sep 21:35:34 21:42:36 67° 71° (ENE) 21:49:42 435.675 MHz FM
PANSAT 30 Sep 21:38:48 21:41:30 18° 173° (S) 21:44:12 not established
Sapphire 30 Sep 21:47:35 21:49:34 12° 258° (WSW) 21:51:34 437.095 MHz 1200 baud AX-25 AFSK
SO-50 30 Sep 21:54:13 21:56:56 16° 317° (NW) 21:59:42 436.795 FM
FUNcube-1 30 Sep 21:56:20 21:57:40 11° 63° (ENE) 21:59:01 145.950 - 145.970 MHz USB
UKube-1 30 Sep 21:59:20 22:03:20 38° 71° (ENE) 22:07:20 145.840 MHz, 145.915 MHz
UOSAT-12 30 Sep 22:21:36 22:26:12 71° 302° (WNW) 22:30:55 437.025 FM, 437.400 FM
ZACube-1 30 Sep 22:38:21 22:42:22 32° 70° (ENE) 22:46:27 437.345 MHz
ISS 30 Sep 23:03:59 23:07:18 79° 139° (SE) 23:10:38 145.800 FM
Oscar 11 30 Sep 23:06:04 23:10:17 48° 261° (W) 23:14:31 145.825 FM, Beacon 2401.500 USB
PANSAT 30 Sep 23:18:20 23:21:05 19° 186° (S) 23:23:50 not established
HO-68 30 Sep 23:25:44 23:30:48 21° 267° (W) 23:35:55 435.675 MHz FM
FUNcube-1 30 Sep 23:28:54 23:33:24 71° 259° (WSW) 23:38:00 145.950 - 145.970 MHz USB
UKube-1 30 Sep 23:36:50 23:39:38 17° 266° (W) 23:42:28 145.840 MHz, 145.915 MHz
Saudisat 1A 30 Sep 23:51:03 23:55:22 51° 56° (NE) 23:59:39 436.775 MHz
UOSAT-12 01 Oct 00:06:12 00:07:13 11° 321° (NW) 00:08:15 437.025 FM, 437.400 FM
AO-40 01 Oct 00:12:18 01:45:26 23° 228° (SW) 04:41:21 Beacon 2401.320
ZACube-1 01 Oct 00:15:14 00:18:46 22° 266° (W) 00:22:22 437.345 MHz
ISS 01 Oct 00:42:08 00:44:21 17° 336° (NNW) 00:46:34 145.800 FM
PANSAT 01 Oct 01:00:02 01:00:35 10° 198° (SSW) 01:01:08 not established
RS-15 01 Oct 01:07:41 01:11:28 12° 97° (E) 01:15:13 29.354 - 29.394 USB, Beacon 29.352 USB
Saudisat 1A 01 Oct 01:32:03 01:34:29 15° 251° (WSW) 01:36:56 436.775 MHz
KITSAT 1 01 Oct 01:39:48 01:45:55 23° 41° (NE) 01:51:58 435.175 FM
Oscar 19 01 Oct 02:20:09 02:23:58 21° 94° (E) 02:27:44 437.125 CW, 437.150 USB
ITAMSAT 1 01 Oct 02:34:09 02:34:54 10° 90° (E) 02:35:40 435.822 SSB
Uribyol 2 01 Oct 02:34:12 02:35:54 12° 90° (E) 02:37:36 436.500 FM
Oscar 16 01 Oct 03:00:16 03:05:19 54° 100° (E) 03:10:19 437.025 USB, Beacon 2401.1428
AO-27 01 Oct 03:09:24 03:13:46 26° 96° (E) 03:18:06 436.795 MHz FM
RS-15 01 Oct 03:10:44 03:21:42 70° 115° (ESE) 03:32:30 29.354 - 29.394 USB, Beacon 29.352 USB
AO-Echo 01 Oct 03:11:24 03:15:58 34° 97° (E) 03:20:37 ?
JAS-1B 01 Oct 03:31:31 03:37:09 57° 102° (ESE) 03:43:18 435.800 - 435.900 CW/SSB
Gurwin Techsat 1B 01 Oct 03:33:25 03:37:27 22° 94° (E) 03:41:27 435.225 FM
KITSAT 1 01 Oct 03:34:16 03:42:24 90° 242° (WSW) 03:50:28 435.175 FM
Oscar 19 01 Oct 03:58:38 04:03:27 42° 289° (WNW) 04:08:14 437.125 CW, 437.150 USB
ISS 01 Oct 03:58:53 04:00:11 12° 17° (NNE) 04:01:29 145.800 FM
TMSAT-1 01 Oct 04:01:44 04:06:21 30° 96° (E) 04:10:56 436.925 FM
ITAMSAT 1 01 Oct 04:09:43 04:14:58 82° 285° (WNW) 04:20:11 435.822 SSB
Uribyol 2 01 Oct 04:10:39 04:15:53 75° 285° (WNW) 04:21:05 436.500 FM
Oscar 16 01 Oct 04:40:53 04:44:12 18° 296° (WNW) 04:47:30 437.025 USB, Beacon 2401.1428
SO-50 01 Oct 04:44:43 04:49:14 38° 53° (NE) 04:53:47 436.795 FM
AO-27 01 Oct 04:48:35 04:53:17 35° 291° (WNW) 04:57:58 436.795 MHz FM
AO-Echo 01 Oct 04:50:25 04:54:34 27° 292° (WNW) 04:58:49 ?
AO-7 01 Oct 04:51:32 04:57:53 24° 94° (E) 05:04:12 29.400 - 29.500 MHz
Gurwin Techsat 1B 01 Oct 05:12:34 05:17:33 43° 289° (WNW) 05:22:32 435.225 FM
OPAL 01 Oct 05:22:21 05:27:25 55° 70° (ENE) 05:32:31 ?
JAS-1B 01 Oct 05:23:45 05:27:27 18° 297° (WNW) 05:31:17 435.800 - 435.900 CW/SSB
RS-15 01 Oct 05:25:08 05:34:52 35° 318° (NW) 05:44:40 29.354 - 29.394 USB, Beacon 29.352 USB
KITSAT 1 01 Oct 05:32:09 05:36:39 16° 259° (W) 05:41:10 435.175 FM
ISS 01 Oct 05:34:18 05:37:32 48° 36° (NE) 05:40:45 145.800 FM
MaSat-1 01 Oct 05:38:57 05:42:50 24° 106° (ESE) 05:46:37 437.345 MHz
TMSAT-1 01 Oct 05:41:33 05:46:12 32° 292° (WNW) 05:50:49 436.925 FM
Uosat F 01 Oct 06:11:04 06:16:08 84° 104° (ESE) 06:21:10 435.120 FM
JAS-2 01 Oct 06:11:12 06:16:13 21° 93° (E) 06:21:32 435.800 - 435.900 CW/SSB, 435.910 FM
SO-50 01 Oct 06:25:44 06:29:36 24° 249° (WSW) 06:33:29 436.795 FM
STRAND 1 01 Oct 06:26:25 06:29:16 15° 63° (ENE) 06:32:07 ?
AO-7 01 Oct 06:43:00 06:51:12 69° 291° (WNW) 06:59:25 29.400 - 29.500 MHz
UOSAT-12 01 Oct 06:52:56 06:57:37 60° 57° (ENE) 07:02:12 437.025 FM, 437.400 FM
Hamsat 01 Oct 07:02:00 07:05:46 32° 97° (E) 07:09:31 145.90 MHz
OPAL 01 Oct 07:03:17 07:06:35 17° 265° (W) 07:09:54 ?
ISS 01 Oct 07:11:54 07:13:56 15° 231° (SW) 07:15:57 145.800 FM
MaSat-1 01 Oct 07:14:40 07:19:09 36° 299° (WNW) 07:23:27 437.345 MHz
RS-15 01 Oct 07:46:03 07:52:02 16° 352° (N) 07:58:04 29.354 - 29.394 USB, Beacon 29.352 USB
Uosat F 01 Oct 07:52:46 07:54:10 11° 300° (WNW) 07:55:35 435.120 FM
JAS-2 01 Oct 07:54:50 08:01:31 69° 286° (WNW) 08:08:56 435.800 - 435.900 CW/SSB, 435.910 FM
STRAND 1 01 Oct 08:02:52 08:07:54 62° 259° (WSW) 08:12:58 ?
UOSAT-12 01 Oct 08:34:52 08:37:12 14° 252° (WSW) 08:39:32 437.025 FM, 437.400 FM
Hamsat 01 Oct 08:38:33 08:41:29 19° 292° (WNW) 08:44:24 145.90 MHz
AO-7 01 Oct 08:38:34 08:42:29 14° 311° (NW) 08:46:25 29.400 - 29.500 MHz
Sapphire 01 Oct 09:01:54 09:04:00 12° 102° (ESE) 09:06:07 437.095 MHz 1200 baud AX-25 AFSK
HO-68 01 Oct 09:08:37 09:11:09 12° 89° (E) 09:13:42 435.675 MHz FM
SO-67 01 Oct 09:11:37 09:14:54 43° 285° (WNW) 09:18:11 435.3500 MHz FM
PCSat 01 Oct 09:25:03 09:29:16 24° 107° (ESE) 09:33:31 145.825 MHz
JAS-2 01 Oct 09:43:33 09:45:35 11° 302° (WNW) 09:47:40 435.800 - 435.900 CW/SSB, 435.910 FM
RS-15 01 Oct 10:02:02 10:10:23 23° 30° (NNE) 10:18:55 29.354 - 29.394 USB, Beacon 29.352 USB
Sapphire 01 Oct 10:41:17 10:46:41 78° 298° (WNW) 10:52:08 437.095 MHz 1200 baud AX-25 AFSK
HO-68 01 Oct 10:52:33 10:59:47 82° 105° (ESE) 11:06:59 435.675 MHz FM
Oscar 11 01 Oct 10:55:35 10:59:30 33° 97° (E) 11:03:22 145.825 FM, Beacon 2401.500 USB
PCSat 01 Oct 11:07:15 11:12:23 43° 303° (WNW) 11:17:33 145.825 MHz
FUNcube-1 01 Oct 11:20:31 11:24:19 26° 95° (E) 11:28:02 145.950 - 145.970 MHz USB
UKube-1 01 Oct 11:24:54 11:29:18 88° 284° (WNW) 11:33:39 145.840 MHz, 145.915 MHz
ZACube-1 01 Oct 12:05:12 12:09:47 85° 103° (ESE) 12:14:13 437.345 MHz
RS-15 01 Oct 12:14:01 12:25:11 71° 56° (ENE) 12:36:47 29.354 - 29.394 USB, Beacon 29.352 USB
Sapphire 01 Oct 12:28:45 12:31:01 13° 317° (NW) 12:33:17 437.095 MHz 1200 baud AX-25 AFSK
Oscar 11 01 Oct 12:32:19 12:35:26 20° 292° (WNW) 12:38:33 145.825 FM, Beacon 2401.500 USB
HO-68 01 Oct 12:41:57 12:46:37 19° 303° (WNW) 12:51:17 435.675 MHz FM
FUNcube-1 01 Oct 12:56:49 13:00:36 27° 291° (WNW) 13:04:19 145.950 - 145.970 MHz USB
